Time,TemperatureF,DewpointF,PressureIn,WindDirection,WindDirectionDegrees,WindSpeedMPH,WindSpeedGustMPH,Humidity,HourlyPrecipIn,Conditions,Clouds,dailyrainin,SoftwareType,DateUTC
2013-04-08 00:02:00,38.0,17.0,29.62,NW,310,0.0,-999.0,42,-99.99,,,-99.99,,2013-04-08 06:02:00,
2013-04-08 00:12:00,38.0,17.0,29.62,NW,310,0.0,-999.0,42,-99.99,,,-99.99,,2013-04-08 06:12:00,
2013-04-08 00:21:00,37.0,17.0,29.61,NW,310,0.0,-999.0,43,-99.99,,,-99.99,,2013-04-08 06:21:00,
2013-04-08 00:32:00,36.0,17.0,29.61,NW,310,0.0,-999.0,45,-99.99,,,-99.99,,2013-04-08 06:32:00,
2013-04-08 00:42:00,36.0,17.0,29.61,NW,310,0.0,-999.0,45,-99.99,,,-99.99,,2013-04-08 06:42:00,
2013-04-08 00:52:00,36.0,16.0,29.61,NW,310,0.0,-999.0,44,-99.99,,,-99.99,,2013-04-08 06:52:00,
2013-04-08 01:02:00,36.0,16.0,29.60,NW,310,0.0,-999.0,44,-99.99,,,-99.99,,2013-04-08 07:02:00,
2013-04-08 01:12:00,36.0,16.0,29.60,NW,310,0.0,-999.0,44,-99.99,,,-99.99,,2013-04-08 07:12:00,
2013-04-08 01:21:00,36.0,16.0,29.60,NW,310,0.0,-999.0,44,-99.99,,,-99.99,,2013-04-08 07:21:00,
2013-04-08 01:32:00,36.0,16.0,29.60,NW,310,0.0,-999.0,44,-99.99,,,-99.99,,2013-04-08 07:32:00,
2013-04-08 01:42:00,36.0,16.0,29.60,NW,310,0.0,-999.0,44,-99.99,,,-99.99,,2013-04-08 07:42:00,
2013-04-08 01:52:00,35.0,16.0,29.59,NW,310,0.0,-999.0,45,-99.99,,,-99.99,,2013-04-08 07:52:00,
2013-04-08 02:02:00,35.0,16.0,29.59,NW,310,0.0,-999.0,45,-99.99,,,-99.99,,2013-04-08 08:02:00,
2013-04-08 02:11:00,35.0,16.0,29.59,NW,310,0.0,-999.0,45,-99.99,,,-99.99,,2013-04-08 08:11:00,
2013-04-08 02:22:00,35.0,16.0,29.59,NW,310,0.0,-999.0,45,-99.99,,,-99.99,,2013-04-08 08:22:00,
2013-04-08 02:32:00,34.0,15.0,29.59,NW,310,0.0,-999.0,45,-99.99,,,-99.99,,2013-04-08 08:32:00,
2013-04-08 02:42:00,35.0,16.0,29.57,NW,310,0.0,-999.0,46,-99.99,,,-99.99,,2013-04-08 08:42:00,
2013-04-08 02:52:00,35.0,16.0,29.57,NW,310,0.0,-999.0,46,-99.99,,,-99.99,,2013-04-08 08:52:00,
2013-04-08 03:01:00,35.0,16.0,29.56,NW,310,0.0,-999.0,45,-99.99,,,-99.99,,2013-04-08 09:01:00,
2013-04-08 03:12:00,35.0,17.0,29.55,NW,310,0.0,-999.0,48,-99.99,,,-99.99,,2013-04-08 09:12:00,
2013-04-08 03:22:00,35.0,17.0,29.55,NW,310,0.0,-999.0,48,-99.99,,,-99.99,,2013-04-08 09:22:00,
2013-04-08 03:32:00,34.0,16.0,29.55,NW,310,0.0,-999.0,48,-99.99,,,-99.99,,2013-04-08 09:32:00,
2013-04-08 03:42:00,34.0,16.0,29.55,NW,310,0.0,-999.0,48,-99.99,,,-99.99,,2013-04-08 09:42:00,
2013-04-08 03:53:00,34.0,16.0,29.54,NW,310,0.0,-999.0,47,-99.99,,,-99.99,,2013-04-08 09:53:00,
2013-04-08 04:02:00,34.0,16.0,29.53,NW,310,0.0,-999.0,48,-99.99,,,-99.99,,2013-04-08 10:02:00,
2013-04-08 04:12:00,34.0,16.0,29.53,NW,310,0.0,-999.0,48,-99.99,,,-99.99,,2013-04-08 10:12:00,
2013-04-08 04:22:00,34.0,17.0,29.52,NW,311,0.0,-999.0,49,-99.99,,,-99.99,,2013-04-08 10:22:00,
2013-04-08 04:32:00,33.0,17.0,29.52,NW,311,0.0,-999.0,52,-99.99,,,-99.99,,2013-04-08 10:32:00,
2013-04-08 04:42:00,33.0,17.0,29.52,NW,311,0.0,-999.0,52,-99.99,,,-99.99,,2013-04-08 10:42:00,
2013-04-08 04:53:00,33.0,17.0,29.51,NW,310,0.0,-999.0,51,-99.99,,,-99.99,,2013-04-08 10:53:00,
2013-04-08 05:02:00,33.0,18.0,29.52,NW,310,0.0,-999.0,53,-99.99,,,-99.99,,2013-04-08 11:02:00,
2013-04-08 05:12:00,33.0,17.0,29.52,NW,310,0.0,-999.0,51,-99.99,,,-99.99,,2013-04-08 11:12:00,
2013-04-08 05:22:00,33.0,17.0,29.52,NW,310,0.0,-999.0,51,-99.99,,,-99.99,,2013-04-08 11:22:00,
2013-04-08 05:32:00,35.0,17.0,29.50,NW,311,0.0,-999.0,48,-99.99,,,-99.99,,2013-04-08 11:32:00,
2013-04-08 05:42:00,35.0,17.0,29.50,NW,311,0.0,-999.0,48,-99.99,,,-99.99,,2013-04-08 11:42:00,
2013-04-08 05:52:00,35.0,18.0,29.51,NW,311,0.0,-999.0,49,-99.99,,,-99.99,,2013-04-08 11:52:00,
2013-04-08 06:01:00,35.0,18.0,29.51,NW,311,0.0,-999.0,50,-99.99,,,-99.99,,2013-04-08 12:01:00,
2013-04-08 06:11:00,35.0,18.0,29.51,NW,311,0.0,-999.0,50,-99.99,,,-99.99,,2013-04-08 12:11:00,
2013-04-08 06:22:00,34.0,18.0,29.51,NW,310,0.0,-999.0,51,-99.99,,,-99.99,,2013-04-08 12:22:00,
2013-04-08 06:32:00,34.0,18.0,29.51,NW,310,1.0,-999.0,51,-99.99,,,-99.99,,2013-04-08 12:32:00,
2013-04-08 06:42:00,34.0,18.0,29.51,NW,310,1.0,-999.0,51,-99.99,,,-99.99,,2013-04-08 12:42:00,
2013-04-08 06:52:00,36.0,20.0,29.52,NW,311,0.0,-999.0,51,-99.99,,,-99.99,,2013-04-08 12:52:00,
2013-04-08 07:02:00,35.0,19.0,29.51,NW,311,0.0,-999.0,52,-99.99,,,-99.99,,2013-04-08 13:02:00,
2013-04-08 07:12:00,35.0,19.0,29.51,NW,311,0.0,-999.0,52,-99.99,,,-99.99,,2013-04-08 13:12:00,
2013-04-08 07:22:00,36.0,19.0,29.51,NW,311,0.0,-999.0,50,-99.99,,,-99.99,,2013-04-08 13:22:00,
2013-04-08 07:32:00,35.0,20.0,29.51,NW,310,0.0,-999.0,54,-99.99,,,-99.99,,2013-04-08 13:32:00,
2013-04-08 07:42:00,35.0,20.0,29.51,NW,310,0.0,-999.0,54,-99.99,,,-99.99,,2013-04-08 13:42:00,
2013-04-08 07:52:00,34.0,19.0,29.50,NW,311,0.0,-999.0,54,-99.99,,,-99.99,,2013-04-08 13:52:00,
2013-04-08 08:02:00,35.0,21.0,29.50,NW,311,0.0,-999.0,57,-99.99,,,-99.99,,2013-04-08 14:02:00,
2013-04-08 08:12:00,35.0,21.0,29.50,NW,311,0.0,-999.0,57,-99.99,,,-99.99,,2013-04-08 14:12:00,
2013-04-08 08:22:00,36.0,20.0,29.51,NW,311,0.0,-999.0,51,-99.99,,,-99.99,,2013-04-08 14:22:00,
2013-04-08 08:32:00,37.0,21.0,29.50,NW,311,0.0,-999.0,51,-99.99,,,-99.99,,2013-04-08 14:32:00,
2013-04-08 08:41:00,39.0,23.0,29.49,NW,310,0.0,-999.0,52,-99.99,,,-99.99,,2013-04-08 14:41:00,
2013-04-08 08:52:00,39.0,23.0,29.49,NW,310,0.0,-999.0,52,-99.99,,,-99.99,,2013-04-08 14:52:00,
2013-04-08 09:01:00,40.0,22.0,29.49,NW,310,1.0,-999.0,49,-99.99,,,-99.99,,2013-04-08 15:01:00,
2013-04-08 09:11:00,40.0,23.0,29.49,East,87,0.0,-999.0,51,-99.99,,,-99.99,,2013-04-08 15:11:00,
2013-04-08 09:22:00,40.0,23.0,29.49,East,87,0.0,-999.0,51,-99.99,,,-99.99,,2013-04-08 15:22:00,
2013-04-08 09:32:00,41.0,23.0,29.49,East,88,0.0,-999.0,48,-99.99,,,-99.99,,2013-04-08 15:32:00,
2013-04-08 09:42:00,41.0,23.0,29.49,East,88,0.0,-999.0,48,-99.99,,,-99.99,,2013-04-08 15:42:00,
2013-04-08 09:53:00,41.0,24.0,29.47,South,190,0.0,-999.0,50,-99.99,,,-99.99,,2013-04-08 15:53:00,
2013-04-08 10:02:00,42.0,24.0,29.46,SSE,161,1.0,-999.0,49,-99.99,,,-99.99,,2013-04-08 16:02:00,
2013-04-08 10:12:00,41.0,25.0,29.46,SSE,161,1.0,-999.0,52,-99.99,,,-99.99,,2013-04-08 16:12:00,
2013-04-08 10:22:00,41.0,25.0,29.46,SSE,161,1.0,-999.0,52,-99.99,,,-99.99,,2013-04-08 16:22:00,
2013-04-08 10:32:00,41.0,25.0,29.46,SSE,161,1.0,-999.0,52,-99.99,,,-99.99,,2013-04-08 16:32:00,
2013-04-08 10:42:00,41.0,24.0,29.45,SSE,153,0.0,-999.0,51,-99.99,,,-99.99,,2013-04-08 16:42:00,
2013-04-08 10:53:00,42.0,25.0,29.45,SSE,153,0.0,-999.0,51,-99.99,,,-99.99,,2013-04-08 16:53:00,
2013-04-08 11:02:00,42.0,25.0,29.44,West,265,1.0,-999.0,51,-99.99,,,-99.99,,2013-04-08 17:02:00,
2013-04-08 11:11:00,43.0,26.0,29.44,East,96,1.0,-999.0,50,-99.99,,,-99.99,,2013-04-08 17:11:00,
2013-04-08 11:22:00,43.0,26.0,29.44,East,96,1.0,-999.0,50,-99.99,,,-99.99,,2013-04-08 17:22:00,
2013-04-08 11:32:00,44.0,27.0,29.43,East,96,2.0,-999.0,51,-99.99,,,-99.99,,2013-04-08 17:32:00,
2013-04-08 11:42:00,44.0,27.0,29.43,East,96,2.0,-999.0,51,-99.99,,,-99.99,,2013-04-08 17:42:00,
2013-04-08 11:52:00,44.0,28.0,29.43,SSW,202,3.0,-999.0,53,-99.99,,,-99.99,,2013-04-08 17:52:00,
2013-04-08 12:02:00,45.0,27.0,29.41,South,171,2.0,-999.0,48,-99.99,,,-99.99,,2013-04-08 18:02:00,
2013-04-08 12:11:00,45.0,27.0,29.41,South,171,2.0,-999.0,48,-99.99,,,-99.99,,2013-04-08 18:11:00,
2013-04-08 12:22:00,46.0,27.0,29.40,ESE,117,4.0,-999.0,47,-99.99,,,-99.99,,2013-04-08 18:22:00,
2013-04-08 12:32:00,47.0,27.0,29.39,East,98,6.0,-999.0,46,-99.99,,,-99.99,,2013-04-08 18:32:00,
2013-04-08 12:42:00,47.0,27.0,29.36,South,178,3.0,-999.0,46,-99.99,,,-99.99,,2013-04-08 18:42:00,
2013-04-08 12:52:00,47.0,27.0,29.36,South,178,3.0,-999.0,46,-99.99,,,-99.99,,2013-04-08 18:52:00,
2013-04-08 13:02:00,47.0,27.0,29.35,NW,306,4.0,-999.0,46,-99.99,,,-99.99,,2013-04-08 19:02:00,
2013-04-08 13:12:00,50.0,29.0,29.34,East,95,3.0,-999.0,44,-99.99,,,-99.99,,2013-04-08 19:12:00,
2013-04-08 13:22:00,50.0,29.0,29.34,East,95,3.0,-999.0,44,-99.99,,,-99.99,,2013-04-08 19:22:00,
2013-04-08 13:32:00,49.0,27.0,29.31,WSW,245,5.0,-999.0,42,-99.99,,,-99.99,,2013-04-08 19:32:00,
2013-04-08 13:42:00,50.0,29.0,29.29,ESE,103,6.0,-999.0,45,-99.99,,,-99.99,,2013-04-08 19:42:00,
2013-04-08 13:52:00,50.0,29.0,29.29,ESE,103,6.0,-999.0,45,-99.99,,,-99.99,,2013-04-08 19:52:00,
2013-04-08 14:02:00,50.0,27.0,29.28,West,273,5.0,-999.0,40,-99.99,,,-99.99,,2013-04-08 20:02:00,
2013-04-08 14:12:00,49.0,26.0,29.27,ESE,109,6.0,-999.0,41,-99.99,,,-99.99,,2013-04-08 20:12:00,
2013-04-08 14:22:00,49.0,26.0,29.27,ESE,109,6.0,-999.0,41,-99.99,,,-99.99,,2013-04-08 20:22:00,
2013-04-08 14:32:00,49.0,26.0,29.25,NE,48,3.0,-999.0,40,-99.99,,,-99.99,,2013-04-08 20:32:00,
2013-04-08 14:42:00,49.0,26.0,29.25,NE,48,3.0,-999.0,40,-99.99,,,-99.99,,2013-04-08 20:42:00,
2013-04-08 14:52:00,49.0,25.0,29.26,West,281,2.0,-999.0,39,-99.99,,,-99.99,,2013-04-08 20:52:00,
2013-04-08 15:01:00,49.0,25.0,29.24,South,169,4.0,-999.0,38,-99.99,,,-99.99,,2013-04-08 21:01:00,
2013-04-08 15:12:00,50.0,23.0,29.23,ESE,117,6.0,-999.0,35,-99.99,,,-99.99,,2013-04-08 21:12:00,
2013-04-08 15:22:00,50.0,23.0,29.23,ESE,117,6.0,-999.0,35,-99.99,,,-99.99,,2013-04-08 21:22:00,
2013-04-08 15:32:00,50.0,23.0,29.21,West,273,3.0,-999.0,35,-99.99,,,-99.99,,2013-04-08 21:32:00,
2013-04-08 15:42:00,50.0,23.0,29.21,West,273,3.0,-999.0,35,-99.99,,,-99.99,,2013-04-08 21:42:00,
2013-04-08 15:53:00,51.0,24.0,29.20,West,267,3.0,-999.0,35,-99.99,,,-99.99,,2013-04-08 21:53:00,
2013-04-08 16:02:00,53.0,22.0,29.18,SW,219,5.0,-999.0,30,-99.99,,,-99.99,,2013-04-08 22:02:00,
2013-04-08 16:12:00,53.0,22.0,29.18,SW,219,5.0,-999.0,30,-99.99,,,-99.99,,2013-04-08 22:12:00,
2013-04-08 16:22:00,54.0,19.0,29.18,SE,134,8.0,-999.0,25,-99.99,,,-99.99,,2013-04-08 22:22:00,
2013-04-08 16:32:00,54.0,19.0,29.18,SE,134,8.0,-999.0,25,-99.99,,,-99.99,,2013-04-08 22:32:00,
2013-04-08 16:42:00,54.0,20.0,29.17,South,190,10.0,-999.0,26,-99.99,,,-99.99,,2013-04-08 22:42:00,
2013-04-08 16:53:00,54.0,21.0,29.17,West,280,8.0,-999.0,27,-99.99,,,-99.99,,2013-04-08 22:53:00,
2013-04-08 17:02:00,53.0,20.0,29.18,West,265,9.0,-999.0,27,-99.99,,,-99.99,,2013-04-08 23:02:00,
2013-04-08 17:11:00,53.0,20.0,29.18,West,265,9.0,-999.0,27,-99.99,,,-99.99,,2013-04-08 23:11:00,
2013-04-08 17:22:00,53.0,20.0,29.18,West,265,9.0,-999.0,27,-99.99,,,-99.99,,2013-04-08 23:22:00,
2013-04-08 17:31:00,52.0,18.0,29.20,West,267,8.0,-999.0,26,-99.99,,,-99.99,,2013-04-08 23:31:00,
2013-04-08 17:41:00,52.0,18.0,29.20,West,267,8.0,-999.0,26,-99.99,,,-99.99,,2013-04-08 23:41:00,
2013-04-08 17:52:00,51.0,19.0,29.19,SE,141,11.0,-999.0,28,-99.99,,,-99.99,,2013-04-08 23:52:00,
2013-04-08 18:02:00,51.0,20.0,29.22,NW,315,11.0,-999.0,29,-99.99,,,-99.99,,2013-04-09 00:02:00,
2013-04-08 18:12:00,51.0,20.0,29.22,NW,315,11.0,-999.0,29,-99.99,,,-99.99,,2013-04-09 00:12:00,
2013-04-08 18:22:00,50.0,21.0,29.20,WNW,287,9.0,-999.0,32,-99.99,,,-99.99,,2013-04-09 00:22:00,
2013-04-08 18:31:00,48.0,22.0,29.23,East,79,8.0,-999.0,36,-99.99,,,-99.99,,2013-04-09 00:31:00,
2013-04-08 18:42:00,48.0,22.0,29.23,East,79,8.0,-999.0,36,-99.99,,,-99.99,,2013-04-09 00:42:00,
2013-04-08 19:02:00,44.0,26.0,29.26,WSW,258,6.0,-999.0,48,-99.99,,,-99.99,,2013-04-09 01:02:00,
2013-04-08 19:12:00,44.0,26.0,29.26,WSW,258,6.0,-999.0,48,-99.99,,,-99.99,,2013-04-09 01:12:00,
2013-04-08 19:22:00,43.0,26.0,29.27,NNE,17,4.0,-999.0,50,-99.99,,,-99.99,,2013-04-09 01:22:00,
2013-04-08 19:32:00,42.0,26.0,29.28,NE,45,7.0,-999.0,53,-99.99,,,-99.99,,2013-04-09 01:32:00,
2013-04-08 19:42:00,41.0,27.0,29.31,SSE,165,4.0,-999.0,56,-99.99,,,-99.99,,2013-04-09 01:42:00,
2013-04-08 19:52:00,41.0,27.0,29.31,SSE,165,4.0,-999.0,56,-99.99,,,-99.99,,2013-04-09 01:52:00,
2013-04-08 20:02:00,40.0,26.0,29.32,SSE,156,2.0,-999.0,58,-99.99,,,-99.99,,2013-04-09 02:02:00,
2013-04-08 20:11:00,40.0,26.0,29.32,SSE,156,2.0,-999.0,58,-99.99,,,-99.99,,2013-04-09 02:11:00,
2013-04-08 20:22:00,40.0,26.0,29.32,South,187,1.0,-999.0,58,-99.99,,,-99.99,,2013-04-09 02:22:00,
2013-04-08 20:32:00,39.0,25.0,29.33,ESE,120,1.0,-999.0,58,-99.99,,,-99.99,,2013-04-09 02:32:00,
2013-04-08 20:42:00,39.0,25.0,29.31,NNW,329,2.0,-999.0,56,-99.99,,,-99.99,,2013-04-09 02:42:00,
2013-04-08 20:52:00,39.0,25.0,29.31,NNW,329,2.0,-999.0,56,-99.99,,,-99.99,,2013-04-09 02:52:00,
2013-04-08 21:01:00,39.0,25.0,29.31,SE,136,1.0,-999.0,57,-99.99,,,-99.99,,2013-04-09 03:01:00,
2013-04-08 21:12:00,39.0,25.0,29.31,SE,136,1.0,-999.0,57,-99.99,,,-99.99,,2013-04-09 03:12:00,
2013-04-08 21:21:00,37.0,25.0,29.32,ENE,74,1.0,-999.0,61,-99.99,,,-99.99,,2013-04-09 03:21:00,
2013-04-08 21:32:00,37.0,25.0,29.32,South,169,1.0,-999.0,61,-99.99,,,-99.99,,2013-04-09 03:32:00,
2013-04-08 21:42:00,37.0,25.0,29.32,South,169,1.0,-999.0,61,-99.99,,,-99.99,,2013-04-09 03:42:00,
2013-04-08 21:53:00,36.0,24.0,29.32,South,176,1.0,-999.0,61,-99.99,,,-99.99,,2013-04-09 03:53:00,
2013-04-08 22:02:00,36.0,24.0,29.34,SE,144,2.0,-999.0,61,-99.99,,,-99.99,,2013-04-09 04:02:00,
2013-04-08 22:12:00,36.0,24.0,29.34,SE,144,2.0,-999.0,61,-99.99,,,-99.99,,2013-04-09 04:12:00,
2013-04-08 22:22:00,33.0,26.0,29.38,SSE,163,5.0,-999.0,75,-99.99,,,-99.99,,2013-04-09 04:22:00,
2013-04-08 22:32:00,33.0,26.0,29.38,SSE,163,5.0,-999.0,75,-99.99,,,-99.99,,2013-04-09 04:32:00,
2013-04-08 22:42:00,33.0,26.0,29.38,SSE,163,5.0,-999.0,75,-99.99,,,-99.99,,2013-04-09 04:42:00,
2013-04-08 22:53:00,33.0,26.0,29.38,SSE,163,5.0,-999.0,75,-99.99,,,-99.99,,2013-04-09 04:53:00,
2013-04-08 23:02:00,30.0,27.0,29.41,SSE,167,0.0,-999.0,87,-99.99,,,-99.99,,2013-04-09 05:02:00,
2013-04-08 23:12:00,30.0,27.0,29.42,SSE,167,1.0,-999.0,87,-99.99,,,-99.99,,2013-04-09 05:12:00,
2013-04-08 23:22:00,30.0,27.0,29.42,SSE,167,1.0,-999.0,87,-99.99,,,-99.99,,2013-04-09 05:22:00,
2013-04-08 23:32:00,30.0,27.0,29.43,SSE,155,1.0,-999.0,87,-99.99,,,-99.99,,2013-04-09 05:32:00,
2013-04-08 23:42:00,30.0,27.0,29.42,SSE,155,0.0,-999.0,87,-99.99,,,-99.99,,2013-04-09 05:42:00,
2013-04-08 23:52:00,30.0,27.0,29.42,SSE,155,0.0,-999.0,87,-99.99,,,-99.99,,2013-04-09 05:52:00,